Hugo, OK

5:16 AM CDT on July 23, 2017 (GMT -0500)
Stamper Municipal

Weather History for KHHW - June, 2014

Change the Weather History Date:

Saturday, June 7, 2014

  Actual Average Record
Temperature  
Mean Temperature 87 °F -  
Max Temperature 98 °F 87 °F 98 °F (2014)
Min Temperature 77 °F 65 °F 62 °F (2013)
Cooling Degree Days 22    
Growing Degree Days 37 (Base 50)    
Moisture  
Dew Point 73 °F    
Average Humidity 66    
Maximum Humidity 94    
Minimum Humidity 39    
Precipitation  
Precipitation 0.00 in - - ()
Sea Level Pressure  
Sea Level Pressure 29.89 in    
Wind  
Wind Speed 6 mph (SSW)    
Max Wind Speed 16 mph    
Max Gust Speed 22 mph    
Visibility 10 miles    
Events      
Averages and records for this station are not official NWS values.
T = Trace of Precipitation, MM = Missing Value Source: NWS Daily Summary

Daily Weather History Graph

Daily Weather History Graph

Search for Another Location

Airport or City:

Trip Planner

Search our weather history database for the weather conditions in past years. The results will help you decide how hot, cold, wet, or windy it might be!

Date:

Astronomy

Jun. 07, 2014 Rise Set
Actual Time 6:10 AM CDT 8:31 PM CDT
Civil Twilight 5:41 AM CDT 9:00 PM CDT
Nautical Twilight 5:06 AM CDT 9:36 PM CDT
Astronomical Twilight 4:27 AM CDT 10:15 PM CDT
Moon 3:04 PM CDT (6/7) 2:17 AM CDT (6/7)
Length of Visible Light 15h 19m
Length of Day
14h 21m
Waxing Gibbous, 68% of the Moon is Illuminated
Jun 7
Waxing Gibbous
Jun 12
Full
Jun 19
Last Quarter
Jun 27
New
Jul 5
First Quarter

Hourly Weather History & Observations

Time (CDT) Temp. Heat Index Dew Point Humidity Pressure Visibility Wind Dir Wind Speed Gust Speed Precip Events Conditions
12:15 AM 78.8 °F - 75.4 °F 89% 29.90 in - Calm Calm - N/A   Unknown
12:35 AM 78.4 °F - 75.6 °F 91% 29.90 in - SE 3.5 mph - N/A   Unknown
12:55 AM 78.1 °F - 75.7 °F 92% 29.91 in - ESE 3.5 mph - N/A   Unknown
1:15 AM 78.1 °F - 76.1 °F 94% 29.92 in - Calm Calm - N/A   Mostly Cloudy
1:35 AM 78.8 °F - 76.1 °F 91% 29.93 in - Calm Calm - N/A   Overcast
1:55 AM 79.0 °F - 76.3 °F 91% 29.95 in - Calm Calm - N/A   Overcast
2:15 AM 78.4 °F - 76.1 °F 92% 29.94 in - ESE 3.5 mph - N/A   Mostly Cloudy
2:35 AM 78.1 °F - 76.1 °F 94% 29.94 in - Calm Calm - N/A   Unknown
2:55 AM 77.9 °F - 75.7 °F 93% 29.93 in - SE 3.5 mph - N/A   Unknown
3:15 AM 78.1 °F - 75.4 °F 91% 29.93 in - SSE 4.6 mph - N/A   Unknown
3:35 AM 78.4 °F - 75.2 °F 90% 29.93 in - SSE 4.6 mph - N/A   Unknown
3:55 AM 78.4 °F - 75.2 °F 90% 29.92 in - SSE 3.5 mph - N/A   Unknown
4:15 AM 78.1 °F - 74.8 °F 90% 29.91 in - SE 5.8 mph - N/A   Unknown
4:35 AM 78.8 °F - 74.7 °F 87% 29.90 in - SSE 5.8 mph - N/A   Unknown
4:55 AM 78.1 °F - 74.5 °F 89% 29.89 in - SSE 8.1 mph - N/A   Unknown
5:15 AM 77.9 °F - 74.3 °F 89% 29.87 in - SSE 12.7 mph 16.1 mph N/A   Unknown
5:35 AM 78.4 °F - 74.3 °F 87% 29.85 in - South 12.7 mph 17.3 mph N/A   Clear
5:55 AM 78.4 °F - 74.3 °F 87% 29.87 in 10.0 mi South 5.8 mph 16.1 mph N/A   Clear
6:15 AM 77.9 °F - 74.1 °F 88% 29.86 in 10.0 mi South 6.9 mph - N/A   Clear
6:35 AM 77.5 °F - 73.9 °F 89% 29.87 in 10.0 mi South 5.8 mph - N/A   Clear
6:55 AM 78.4 °F - 73.6 °F 85% 29.89 in 10.0 mi SW 8.1 mph - N/A   Clear
7:15 AM 79.3 °F - 73.4 °F 82% 29.90 in 10.0 mi SW 8.1 mph - N/A   Clear
7:55 AM 80.8 °F 85.8 °F 73.8 °F 79% 29.92 in 10.0 mi SW 8.1 mph - N/A   Clear
8:15 AM 81.7 °F 87.1 °F 73.6 °F 76% 29.92 in 10.0 mi SSW 8.1 mph - N/A   Clear
8:35 AM 82.8 °F 89.0 °F 73.8 °F 74% 29.93 in 10.0 mi SW 6.9 mph - N/A   Clear
8:55 AM 83.8 °F 90.4 °F 73.6 °F 71% 29.94 in 10.0 mi SW 6.9 mph - N/A   Clear
9:15 AM 84.9 °F 92.1 °F 73.6 °F 69% 29.94 in 10.0 mi SW 9.2 mph - N/A   Clear
9:35 AM 86.0 °F 92.6 °F 72.7 °F 64% 29.94 in 10.0 mi SW 9.2 mph 18.4 mph N/A   Clear
9:55 AM 87.1 °F 94.9 °F 73.4 °F 64% 29.93 in 10.0 mi SW 11.5 mph 20.7 mph N/A   Clear
10:15 AM 87.8 °F 95.2 °F 72.7 °F 61% 29.93 in 10.0 mi SW 12.7 mph 19.6 mph N/A   Clear
10:35 AM 88.7 °F 96.2 °F 72.5 °F 59% 29.93 in 10.0 mi SW 13.8 mph - N/A   Clear
10:55 AM 87.8 °F 94.7 °F 72.5 °F 60% 29.94 in 10.0 mi WSW 10.4 mph 21.9 mph N/A   Clear
11:15 AM 89.1 °F 97.5 °F 73.8 °F 60% 29.94 in 10.0 mi WSW 11.5 mph 16.1 mph N/A   Clear
11:35 AM 90.7 °F 99.6 °F 73.6 °F 57% 29.94 in 10.0 mi WSW 10.4 mph 17.3 mph N/A   Clear
12:15 PM 92.3 °F 101.5 °F 73.2 °F 54% 29.92 in 10.0 mi SW 12.7 mph - N/A   Clear
12:35 PM 92.8 °F 101.5 °F 72.7 °F 52% 29.91 in 10.0 mi SW 16.1 mph 21.9 mph N/A   Clear
12:55 PM 93.4 °F 100.3 °F 71.2 °F 48% 29.91 in 10.0 mi SW 15.0 mph 21.9 mph N/A   Clear
1:15 PM 94.5 °F 103.3 °F 72.5 °F 49% 29.91 in 10.0 mi SW 12.7 mph 18.4 mph N/A   Clear
1:35 PM 95.0 °F 100.7 °F 69.4 °F 43% 29.90 in 10.0 mi SW 13.8 mph 21.9 mph N/A   Clear
1:55 PM 95.7 °F 101.5 °F 69.3 °F 42% 29.89 in 10.0 mi SW 16.1 mph 19.6 mph N/A   Clear
2:15 PM 95.7 °F 102.1 °F 70.0 °F 43% 29.88 in 10.0 mi SW 10.4 mph - N/A   Clear
2:35 PM 96.8 °F 101.8 °F 68.2 °F 39% 29.89 in 10.0 mi WSW 11.5 mph 21.9 mph N/A   Clear
2:55 PM 97.0 °F 102.8 °F 68.9 °F 40% 29.89 in 10.0 mi WSW 15.0 mph 20.7 mph N/A   Clear
3:15 PM 96.4 °F 101.7 °F 68.7 °F 40% 29.88 in 10.0 mi WSW 10.4 mph 19.6 mph N/A   Clear
3:35 PM 96.6 °F 103.4 °F 70.0 °F 42% 29.88 in 10.0 mi WSW 8.1 mph 16.1 mph N/A   Scattered Clouds
3:55 PM 94.8 °F 100.9 °F 70.0 °F 44% 29.88 in 10.0 mi SW 8.1 mph - N/A   Mostly Cloudy
4:15 PM 97.5 °F 105.3 °F 70.9 °F 42% 29.87 in 10.0 mi WSW 10.4 mph - N/A   Scattered Clouds
4:35 PM 97.7 °F 104.3 °F 70.0 °F 40% 29.87 in 10.0 mi WSW 8.1 mph - N/A   Clear
4:55 PM 97.5 °F 104.6 °F 70.3 °F 41% 29.86 in 10.0 mi SW 8.1 mph - N/A   Scattered Clouds
5:15 PM 97.3 °F 104.2 °F 70.3 °F 41% 29.85 in 10.0 mi WSW 9.2 mph - N/A   Scattered Clouds
5:35 PM 97.0 °F 104.8 °F 71.1 °F 43% 29.85 in 10.0 mi WSW 6.9 mph - N/A   Scattered Clouds
5:55 PM 96.8 °F 105.1 °F 71.4 °F 44% 29.85 in 10.0 mi SSW 8.1 mph - N/A   Clear
6:15 PM 96.1 °F 104.9 °F 72.0 °F 46% 29.85 in 10.0 mi SSW 4.6 mph - N/A   Clear
6:35 PM 95.9 °F 104.5 °F 72.3 °F 46% 29.85 in 10.0 mi SSW 4.6 mph - N/A   Scattered Clouds
6:55 PM 94.8 °F 102.8 °F 71.6 °F 47% 29.85 in 10.0 mi SSW 5.8 mph - N/A   Clear
7:15 PM 94.1 °F 101.8 °F 72.0 °F 48% 29.85 in 10.0 mi SSW 5.8 mph - N/A   Clear
7:35 PM 92.5 °F 100.7 °F 72.5 °F 52% 29.85 in 10.0 mi South 5.8 mph - N/A   Clear
7:55 PM 90.9 °F 98.9 °F 72.7 °F 55% 29.85 in 10.0 mi SSW 4.6 mph - N/A   Clear
8:15 PM 89.4 °F 97.8 °F 73.6 °F 59% 29.85 in 10.0 mi South 4.6 mph - N/A   Clear
8:35 PM 89.1 °F 97.0 °F 73.0 °F 59% 29.86 in 10.0 mi SSW 3.5 mph - N/A   Scattered Clouds
8:55 PM 87.8 °F 95.6 °F 73.4 °F 62% 29.87 in - South 4.6 mph - N/A   Clear
9:15 PM 87.1 °F 94.9 °F 73.4 °F 64% 29.87 in - South 4.6 mph - N/A   Clear
9:35 PM 86.2 °F 93.8 °F 73.4 °F 66% 29.88 in - SSW 4.6 mph - N/A   Clear
9:55 PM 85.5 °F 93.0 °F 73.9 °F 68% 29.86 in - SSE 4.6 mph - N/A   Clear
10:15 PM 86.0 °F 93.4 °F 73.4 °F 66% 29.88 in - South 3.5 mph - N/A   Clear
10:35 PM 85.6 °F 93.0 °F 73.4 °F 67% 29.87 in - South 6.9 mph - N/A   Clear
10:55 PM 86.2 °F 93.4 °F 73.0 °F 65% 29.87 in - SSE 3.5 mph - N/A   Clear
11:15 PM 86.0 °F 93.4 °F 73.4 °F 66% 29.87 in - SSE 5.8 mph - N/A   Mostly Cloudy
11:35 PM 85.3 °F 92.6 °F 73.6 °F 68% 29.90 in - Calm Calm - N/A   Overcast
11:55 PM 84.4 °F 91.3 °F 73.6 °F 70% 29.90 in - Calm Calm - N/A   Overcast